sat.trackr.live / text

‹ back to catalog

STARLINK-6204

NORAD 56488 · 2023-064AS

PAYLOAD ACTIVE UNKNOWN

§ Identity

Operator
Country
US
Launch date
2023-05-10
Launch site
AFWTR
Launch vehicle
Mass (kg)
RCS (m²)

Purposes: comms

External: N2YO · Heavens-Above · Gunter

§ Orbital elements

Epoch: 2026-05-24T18:04:58.357344Z

Period
96.11 min
Inclination
69.9993°
Eccentricity
0.0003022
Mean motion
14.98334184 rev/d
Perigee alt
569.9 km
Apogee alt
574.1 km
Semi-major
6,950.2 km
B*
4.9583e-5
RAAN
272.7684°
Arg perigee
270.8153°
Mean anomaly
89.2660°
Rev number
16,762

§ Raw data

STARLINK-62041 56488U 23064AS  26144.75345321  .00000499  00000+0  49583-4 0  99972 56488  69.9993 272.7684 0003022 270.8153  89.2660 14.98334184167625

JSON: /api/v1/satellites/56488 · /tle

For live sub-satellite position, see the globe view (requires WebGL).

§ Visibility from observer

Set your observer location to see the next 7 days of passes ≥ 10°. The values pass through the URL so the page stays shareable.

No JS? Fill the form by hand. The geolocation button needs JavaScript.